Location: Unspecified
(0.0000°N, 0.0000°E)
Time: 10:27:34
(UTC+00:00)

A-11 Canister half - Pass Details

Date: 01 August 2021
Orbit: 1515 x 1685 km, 47.2° (Epoch: 27 September)

Event Time Altitude Azimuth Distance (km) Brightness Sun altitude
Rises 23:14:40 0° 351° (N) 4,924 11.9 -68.2°
Enters shadow 23:17:03 - 0° (N) 4,431 11.6 -68.5°
Reaches altitude 10° 23:19:59 10° 14° (NNE) 3,932 - -68.9°
Maximum altitude 23:25:05 15° 45° (NE) 3,538 - -69.5°
Drops below altitude 10° 23:30:09 10° 76° (ENE) 3,900 - -70.1°
Sets 23:35:17 0° 98° (E) 4,860 - -70.7°
